Naples, FL

5:51 AM EST on February 25, 2017 (GMT -0500)
Naples Municipal

Weather History for KAPF - March, 2012

Change the Weather History Date:

Wednesday, March 14, 2012

  Actual Average Record
Temperature  
Mean Temperature 73 °F 70 °F  
Max Temperature 84 °F 80 °F 89 °F (1973)
Min Temperature 62 °F 60 °F 37 °F (1993)
Degree Days  
Heating Degree Days 0 1  
Month to date heating degree days 2 14  
Since 1 July heating degree days 121 247  
Cooling Degree Days 8 5  
Month to date cooling degree days 108 70  
Year to date cooling degree days 382 261  
Growing Degree Days 22 (Base 50)    
Moisture  
Dew Point 60 °F    
Average Humidity 65    
Maximum Humidity 84    
Minimum Humidity 46    
Precipitation  
Precipitation 0.00 in 0.07 in 2.29 in (1997)
Month to date precipitation 0.11 0.97  
Year to date precipitation 3.49 4.92  
Snow  
Snow 0.00 in - - ()
Month to date snowfall 0.0  
Since 1 July snowfall 0.0  
Snow Depth 0.00 in    
Sea Level Pressure  
Sea Level Pressure 30.16 in    
Wind  
Wind Speed 9 mph (ENE)    
Max Wind Speed 17 mph    
Max Gust Speed 23 mph    
Visibility 10 miles    
Events      
T = Trace of Precipitation, MM = Missing Value Source: NWS Daily Summary

Daily Weather History Graph

Daily Weather History Graph

Search for Another Location

Airport or City:

Trip Planner

Search our weather history database for the weather conditions in past years. The results will help you decide how hot, cold, wet, or windy it might be!

Date:

Astronomy

Mar. 14, 2012 Rise Set
Actual Time 7:36 AM EDT 7:35 PM EDT
Civil Twilight 7:13 AM EDT 7:58 PM EDT
Nautical Twilight 6:47 AM EDT 8:25 PM EDT
Astronomical Twilight 6:20 AM EDT 8:52 PM EDT
Moon 1:32 AM EDT (3/14) 12:24 PM EDT (3/14)
Length of Visible Light 12h 44m
Length of Day
11h 58m
Waning Gibbous, 54% of the Moon is Illuminated
Mar 14
Waning Gibbous
Mar 14
Last Quarter
Mar 22
New
Mar 30
First Quarter
Apr 6
Full

Hourly Weather History & Observations

Time (EDT) Temp. Heat Index Dew Point Humidity Pressure Visibility Wind Dir Wind Speed Gust Speed Precip Events Conditions
12:53 AM 66.9 °F - 59.0 °F 76% 30.20 in 10.0 mi East 5.8 mph - N/A   Clear
1:53 AM 66.0 °F - 57.9 °F 75% 30.18 in 10.0 mi East 6.9 mph - N/A   Clear
2:53 AM 64.9 °F - 57.9 °F 78% 30.16 in 10.0 mi East 4.6 mph - N/A   Clear
3:53 AM 64.4 °F - 57.2 °F 77% 30.14 in 10.0 mi ENE 3.5 mph - N/A   Clear
4:53 AM 64.0 °F - 57.9 °F 80% 30.13 in 10.0 mi NE 3.5 mph - N/A   Clear
5:53 AM 62.1 °F - 57.9 °F 86% 30.14 in 10.0 mi ENE 4.6 mph - N/A   Clear
6:53 AM 62.1 °F - 57.9 °F 86% 30.16 in 10.0 mi NE 3.5 mph - N/A   Clear
7:53 AM 63.0 °F - 57.9 °F 84% 30.18 in 10.0 mi NNE 4.6 mph - N/A   Clear
8:53 AM 66.9 °F - 60.1 °F 79% 30.20 in 10.0 mi NE 6.9 mph - N/A   Clear
9:53 AM 73.0 °F - 62.1 °F 68% 30.21 in 10.0 mi ENE 10.4 mph - N/A   Clear
10:53 AM 77.0 °F - 63.0 °F 62% 30.21 in 10.0 mi East 10.4 mph - N/A   Scattered Clouds
11:53 AM 79.0 °F - 62.1 °F 56% 30.21 in 10.0 mi ENE 9.2 mph - N/A   Mostly Cloudy
12:53 PM 82.0 °F 82.7 °F 61.0 °F 49% 30.20 in 10.0 mi ENE 8.1 mph - N/A   Partly Cloudy
1:53 PM 81.0 °F 81.3 °F 59.0 °F 47% 30.17 in 10.0 mi NNE 8.1 mph - N/A   Mostly Cloudy
2:53 PM 82.0 °F 82.4 °F 60.1 °F 47% 30.14 in 10.0 mi NE 12.7 mph - N/A   Mostly Cloudy
3:53 PM 82.0 °F 82.1 °F 59.0 °F 45% 30.12 in 10.0 mi NE 15.0 mph - N/A   Scattered Clouds
4:53 PM 82.9 °F 82.8 °F 59.0 °F 44% 30.11 in 10.0 mi NE 11.5 mph - N/A   Partly Cloudy
5:53 PM 82.0 °F 82.1 °F 59.0 °F 45% 30.11 in 10.0 mi ENE 17.3 mph 21.9 mph N/A   Clear
6:53 PM 80.1 °F 80.7 °F 59.0 °F 48% 30.12 in 10.0 mi NE 15.0 mph - N/A   Scattered Clouds
7:53 PM 77.0 °F - 61.0 °F 58% 30.13 in 10.0 mi ENE 6.9 mph - N/A   Scattered Clouds
8:53 PM 75.0 °F - 60.1 °F 60% 30.15 in 10.0 mi ENE 8.1 mph - N/A   Clear
9:53 PM 73.0 °F - 60.1 °F 64% 30.17 in 10.0 mi ENE 10.4 mph - N/A   Clear
10:53 PM 70.0 °F - 60.1 °F 71% 30.19 in 10.0 mi NE 8.1 mph - N/A   Clear
11:53 PM 69.1 °F - 60.1 °F 73% 30.19 in 10.0 mi ENE 10.4 mph - N/A   Clear